Location: Balmoral
(33.0667°S, 151.5833°E)
Time: 17:13:09
(UTC+00:00)

USA 32 - Pass Details

Date: 18 September 2020
Orbit: 778 x 782 km, 85.0° (Epoch: 27 September)

Event Time Altitude Azimuth Distance (km) Brightness Sun altitude
Rises 19:17:42 0° 344° (NNW) 3,256 7.1 -7.0°
Reaches altitude 10° 19:20:07 10° 338° (NNW) 2,337 6.3 -6.5°
Maximum altitude 19:25:11 49° 264° (W) 1,014 4.3 -5.5°
Drops below altitude 10° 19:30:19 10° 189° (S) 2,366 6.5 -4.4°
Sets 19:32:47 0° 183° (S) 3,301 7.3 -3.9°
